sat.trackr.live / text

‹ back to catalog

STARLINK-36395

NORAD 67554 · 2026-014Y

PAYLOAD ACTIVE UNKNOWN

§ Identity

Operator
Country
US
Launch date
2026-01-22
Launch site
AFWTR
Launch vehicle
Mass (kg)
RCS (m²)

Purposes: comms

External: N2YO · Heavens-Above · Gunter

§ Orbital elements

Epoch: 2026-05-25T04:25:42.763008Z

Period
91.42 min
Inclination
97.2869°
Eccentricity
0.0001279
Mean motion
15.75173624 rev/d
Perigee alt
343.3 km
Apogee alt
345.0 km
Semi-major
6,722.3 km
B*
1.3065e-3
RAAN
33.8664°
Arg perigee
98.8995°
Mean anomaly
261.2415°
Rev number
2,060

§ Raw data

STARLINK-363951 67554U 26014Y   26145.18452272  .00199212  00000+0  13065-2 0  99992 67554  97.2869  33.8664 0001279  98.8995 261.2415 15.75173624 20607

JSON: /api/v1/satellites/67554 · /tle

For live sub-satellite position, see the globe view (requires WebGL).

§ Visibility from observer

Set your observer location to see the next 7 days of passes ≥ 10°. The values pass through the URL so the page stays shareable.

No JS? Fill the form by hand. The geolocation button needs JavaScript.